Location: Newark
(43.6583°N, 1.6617°E)
Time: 05:55:07
(UTC+00:00)

Courier 1B - Pass Details

Date: 03 September 2019
Orbit: 962 x 1209 km, 28.3° (Epoch: 22 September)

Event Time Altitude Azimuth Distance (km) Brightness Sun altitude
Rises 14:05:09 0° 240° (WSW) 4,078 11.5 43.7°
Reaches altitude 10° 14:08:38 10° 227° (SW) 3,090 11.2 43.3°
Maximum altitude 14:14:27 24° 177° (S) 2,176 10.1 42.4°
Drops below altitude 10° 14:20:02 10° 127° (SE) 2,966 10.0 41.6°
Sets 14:23:18 0° 114° (ESE) 3,879 10.4 41.2°
